Flag for U.S.A. Weather past 2 weeks in Burbank, California, U.S.A.

Now
56 °F

Clear.


Feels Like: 56 °F
Forecast: 55 / 67 °F
Wind: 3 mph from South

Location: Burbank-Glendale-Pasadena Airport

Current Time: May 5, 2015 at 12:18:06 AM

Latest Report: May 4, 2015 at 11:53 PM


Visibility: 10 mi

Pressure: 29.96 "Hg

Humidity: 72%

Dew point: 47 °F

Location of BurbankLocation

Historic Weather in Burbank — Graph

°F

Burbank temperature yesterday

Maximum temperature yesterday: 69 °F (at 2:53 PM)
Minimum temperature yesterday: 54 °F (at 5:53 AM)
Average temperature yesterday: 61 °F

Past Weeks' High & Low Weather Summary

 TemperatureHumidityPressure
High93 °F (Apr 29, 3:53 PM)87% (Apr 25, 2:53 PM)29.99 "Hg (Apr 25, 2:53 PM)
Low53 °F (Apr 23, 4:53 AM)9% (Apr 27, 11:53 AM)29.76 "Hg (May 2, 5:53 PM)
Average67 °F49%29.87 "Hg
* Reported Apr 19 10:53 PM — May 4 10:53 PM, Burbank, Weather by CustomWeather, © 2015

Note: Actual official high and low records may vary slightly from our data, if they occured in-between our weather recording intervals... More about our weather records

Advertising

Burbank weather history for previous 24 hours

 ConditionsComfort  
Time TempWeatherWind HumidityBarometerVisibility
10:53 PM
Mon, May 4
57 °FClear.7 mph72%29.95 "Hg10 mi
9:53 PM58 °FClear.8 mph70%29.94 "Hg10 mi
8:53 PM58 °FClear.6 mph70%29.93 "Hg10 mi
7:53 PM59 °FSunny.8 mph69%29.90 "Hg10 mi
6:53 PM62 °FSunny.10 mph62%29.88 "Hg10 mi
5:53 PM65 °FSunny.10 mph56%29.87 "Hg10 mi
4:53 PM66 °FSunny.14 mph54%29.88 "Hg10 mi
3:53 PM68 °FSunny.12 mph51%29.88 "Hg10 mi
2:53 PM69 °FSunny.8 mph51%29.90 "Hg10 mi
1:53 PM68 °FSunny.10 mph51%29.92 "Hg10 mi
12:53 PM67 °FSunny.9 mph53%29.93 "Hg10 mi
11:53 AM64 °FSunny.7 mph58%29.94 "Hg10 mi
10:53 AM63 °FPartly sunny.9 mph58%29.94 "Hg10 mi
9:53 AM60 °FOvercast.9 mph67%29.93 "Hg10 mi
8:53 AM58 °FOvercast.7 mph70%29.93 "Hg10 mi
8:00 AM57 °FOvercast.No wind72%29.95 "Hg10 mi
6:53 AM56 °FPassing clouds.No wind72%29.90 "Hg10 mi
5:53 AM54 °FClear.No wind74%29.89 "Hg10 mi
4:53 AM56 °FClear.No wind77%29.88 "Hg10 mi
3:53 AM56 °FPassing clouds.No wind75%29.89 "Hg10 mi
2:53 AM57 °FClear.6 mph72%29.89 "Hg10 mi
1:53 AM57 °FClear.12 mph74%29.88 "Hg10 mi
12:53 AM58 °FClear.6 mph70%29.88 "Hg10 mi
Weather by CustomWeather, © 2015

See weather overviewHow to use our weather pages